Find Starlink 3386

NORAD ID: 51126 Int'l Des: 2022-005 Owner: SPXS Country: US Constellation: starlink operational
LEOCIRCULAR

現在のビュー

3D地球を読み込み中...

About Starlink 3386

Starlink 3386 (NORAD 51126) is a starlink constellation satellite (v1.5) launched Jan 19, 2022 by SPXS of US. It operates in LEO, CIRCULAR orbit with a mass of 297.00 kg.

Starlink 3386について

説明を読み込み中...

次回通過

Passes for default location (London). Set your location on the main map for personalized predictions.

高度履歴

Loading altitude history...

軌道要素

1 51126U 22005Y 26171.41668980 .00045647 00000-0 24729-2 0 9995
2 51126 53.1608 197.8088 0000611 167.5629 145.7273 15.14187941 5729
Epoch: Jun 20, 2026 • Age: 19 hours

現在のステータス

高度 531.3 km
速度 7.60 km/s
衛星直下点 -26.28°S, 172.83°W
打ち上げ日 Jan 19, 2022
運用期間 4.4 years
タイプ internet

技術仕様

分類 Payload
質量 297.00 kg
乾燥質量 275.00 kg
総質量 297.00 kg
長さ 0.20 m
直径 2.80 m
スパン 9.00 m
形状 Box + pan
製造者 SPXS
バスタイプ Starlink
フェーズステータス In Orbit
所有者/国 SPXS/US

Most Searched